COSMOS 252 DEB, 19479

Orbit data source: Space-Track

COSMOS 252 DEB, 19479 is space debris in LEO originally from a launch on Fri, 01 Nov 1968 UTC launched from the Tyuratam Missile And Space Complex (TTMTR). Debris objects in space refer to the collection of defunct objects orbiting the Earth. Examples of debris include non-operational satellites, rocket bodies, and fragments generated from explosions, collisions, or faulty payload assembly.

Loading next visibility...
Identifier
19479, 1968-097ET
Orbit
LEO
Country
Flag of CISCIS
Related business
Manufacturer
Unknown
Mission
Spacecraft
Bus & Motor
Unknown
Mass
Unknown
Launch date (UTC)
1968-11-01 (58 years ago)
Launch vehicle
Unknown
Launch site
Tyuratam Missile And Space Complex (TTMTR)
Object type
Payload
Rocket body
Debris
Shape & HBR
Unknown shape, 0.1 m
Radar Cross Section
Medium (>0.1 m² and <1 m²)

Expand to show TLE details & history
Last TLE update: 18 hours ago

TLE from 18 hours ago
0 COSMOS 252 DEB
1 19479U 68097ET  26174.72604229  .00005816  00000-0  98818-3 0  9999
2 19479  62.7907  69.6980 0579065  79.4558 287.1158 13.96845866893289
Epoch: 2026-06-23T17:25Z
TLE epoch observation values (Epoch: 2026-06-23T17:25:30.053Z)
Latitude
-0.00004°
Longitude
-103.57072°
Altitude
805.213 km
Speed
7.503 km/s
True Right ascension
04h 38m 47s
True Declination
0° 00' 00"
Sunlit
Object was in daylight at epoch
Visualization orbit readout
Latitude
Unknown
Longitude
Unknown
Altitude
Unknown
Speed
Unknown
Apparent Right ascension
Unknown
Apparent Declination
Unknown
Sunlit
N/A
Visualization observer readout
Local Sidereal Time
22:44:20
Azimuth
Unknown
Elevation
Unknown
Doppler factor
Unknown
Orbital elements
Apogee altitude
1,325.27 km
Perigee altitude
481.949 km
Semi-major axis
7,281.747 km
Eccentricity
0.05791
Inclination
62.7907°
RAAN
69.698°
Arg. of periapsis
79.4558°
True anomaly
280.64996°
Mean anomaly
287.1158°
Eccentric anomaly
283.89509°
Mean motion
3.49293 °/min
Orbital period
103.07 mins
BSTAR
0.00098818
Loading maneuver chart data...
Computing Atmospheric mass density...
Loading historical data...
Loading historical data...
Loading historical data...
Loading historical data...
Loading historical data...
Loading historical data...
Loading historical data...

Documentation

Showing up to 5 results
|